Powrót do katalogu

COSMOS 509

AktywnyMilitariaLEO
NORAD 6122·PAYLOAD·🇷🇺 Russia

Wystrzelony Jul 20, 1972 z Plesetsk Cosmodrome

Loading…

Następne Przeloty (najbliższe 24 godziny)

TLE

ŚwieżeSource: Space-Track

Epoka: Sep 14, 2026, 07:23 UTC

1 06122U 72057F   26257.30797667 -.00000013  00000-0  21162-4 0  9990
2 06122  74.0247 104.3146 0015877 206.9507 266.0695 12.44998389461083

Śledź COSMOS 509 w czasie rzeczywistym z AllMySat

Download on the App Store